Location: Haliburton Scout Reserve
(45.0900°N, 78.3200°W)
Time: 01:41:28
(UTC-04:00)

NANOSAT C BR1 - Pass Details

Date: 16 May 2022
Orbit: 583 x 601 km, 98.0° (Epoch: 27 June)

Event Time Altitude Azimuth Distance (km) Brightness Sun altitude
Rises 03:14:02 0° 14° (NNE) 2,827 ? -19.8°
Reaches altitude 10° 03:16:12 10° 16° (NNE) 1,919 ? -19.6°
Maximum altitude 03:20:22 76° 102° (ESE) 608 ? -19.2°
Enters shadow 03:21:43 42° 179° (S) 846 ? -19.1°
